Weather History for KPNC - December, 2012

Change the Weather History Date:

Sunday, December 16, 2012

  Actual Average Record
Temperature  
Mean Temperature 40 °F -  
Max Temperature 50 °F 44 °F 71 °F (2006)
Min Temperature 30 °F 24 °F 7 °F (1951)
Degree Days  
Heating Degree Days 25    
Moisture  
Dew Point 35 °F    
Average Humidity 76    
Maximum Humidity 96    
Minimum Humidity 61    
Precipitation  
Precipitation 0.00 in - - ()
Sea Level Pressure  
Sea Level Pressure 29.72 in    
Wind  
Wind Speed 5 mph (NW)    
Max Wind Speed 15 mph    
Max Gust Speed 18 mph    
Visibility 9 miles    
Events      
Averages and records for this station are not official NWS values.
T = Trace of Precipitation, MM = Missing Value Source: NWS Daily Summary

Daily Weather History Graph

Daily Weather History Graph

Search for Another Location

Airport or City:

Trip Planner

Search our weather history database for the weather conditions in past years. The results will help you decide how hot, cold, wet, or windy it might be!

Date:

Astronomy

Dec. 16, 2012 Rise Set
Actual Time 7:34 AM CST 5:14 PM CST
Civil Twilight 7:05 AM CST 5:42 PM CST
Nautical Twilight 6:33 AM CST 6:15 PM CST
Astronomical Twilight 6:01 AM CST 6:46 PM CST
Moon 10:13 AM CST (12/16) 9:24 PM CST (12/16)
Length of Visible Light 10h 37m
Length of Day
9h 39m
Waxing Crescent, 16% of the Moon is Illuminated
Dec 16
Waxing Crescent
Dec 19
First Quarter
Dec 28
Full
Jan 4
Last Quarter
Jan 11
New

Hourly Weather History & Observations

Time (CST) Temp. Windchill Dew Point Humidity Pressure Visibility Wind Dir Wind Speed Gust Speed Precip Events Conditions
12:53 AM 41.0 °F 39.0 °F 35.1 °F 79% 29.69 in 10.0 mi SE 3.5 mph - N/A   Clear
1:53 AM 43.0 °F 40.3 °F 36.0 °F 76% 29.67 in 10.0 mi SSE 4.6 mph - N/A   Clear
2:53 AM 37.0 °F - 33.1 °F 86% 29.69 in 10.0 mi Calm Calm - N/A   Clear
3:53 AM 37.0 °F - 33.1 °F 86% 29.69 in 10.0 mi Calm Calm - N/A   Clear
4:53 AM 35.6 °F - 30.2 °F 81% 29.68 in 10.0 mi Calm Calm - N/A   Clear
5:53 AM 30.9 °F 27.5 °F 28.9 °F 92% 29.71 in 10.0 mi WSW 3.5 mph - N/A   Clear
6:53 AM 33.1 °F - 30.9 °F 92% 29.70 in 10.0 mi Calm Calm - N/A   Clear
7:53 AM 30.0 °F - 28.9 °F 96% 29.73 in 10.0 mi Calm Calm - N/A   Clear
10:53 AM 46.9 °F - 37.0 °F 68% 29.70 in 10.0 mi WSW 8.1 mph - N/A   Clear
11:53 AM 50.0 °F - 37.0 °F 61% 29.68 in 10.0 mi West 12.7 mph - N/A   Clear
12:53 PM 50.0 °F - 37.0 °F 61% 29.67 in 10.0 mi WSW 11.5 mph 18.4 mph N/A   Clear
1:53 PM 50.0 °F - 39.0 °F 66% 29.66 in 10.0 mi NW 15.0 mph - N/A   Partly Cloudy
2:53 PM 46.9 °F - 37.9 °F 71% 29.68 in 10.0 mi NNW 9.2 mph - N/A   Scattered Clouds
3:12 PM 46.4 °F 42.4 °F 37.4 °F 71% 29.68 in 8.0 mi North 8.1 mph - N/A   Mostly Cloudy
3:49 PM 46.4 °F 41.9 °F 37.4 °F 71% 29.70 in 7.0 mi NW 9.2 mph - N/A   Overcast
3:53 PM 46.0 °F 41.4 °F 37.9 °F 73% 29.71 in 7.0 mi NW 9.2 mph - N/A   Overcast
4:53 PM 46.0 °F 43.1 °F 37.9 °F 73% 29.73 in 6.0 mi NNW 5.8 mph - N/A   Haze
5:53 PM 46.0 °F 41.4 °F 37.0 °F 71% 29.72 in 8.0 mi North 9.2 mph - N/A   Overcast
6:53 PM 46.0 °F 42.5 °F 37.0 °F 71% 29.75 in 9.0 mi NNW 6.9 mph - N/A   Overcast
7:53 PM 45.0 °F 41.8 °F 37.0 °F 74% 29.77 in 9.0 mi NW 5.8 mph - N/A   Overcast
8:19 PM 44.6 °F 39.2 °F 35.6 °F 71% 29.77 in 10.0 mi NNW 10.4 mph - N/A   Scattered Clouds
8:53 PM 42.1 °F 37.1 °F 34.0 °F 73% 29.79 in 10.0 mi North 8.1 mph - N/A   Clear
9:53 PM 39.9 °F 35.1 °F 34.0 °F 79% 29.79 in 9.0 mi North 6.9 mph - N/A   Clear
10:53 PM 37.9 °F 30.9 °F 33.1 °F 83% 29.78 in 7.0 mi North 10.4 mph - N/A   Clear
11:53 PM 37.0 °F 34.5 °F 32.0 °F 82% 29.79 in 7.0 mi NNW 3.5 mph - N/A   Partly Cloudy